TimeMDT,TemperatureF,Dew PointF,Humidity,Sea Level PressureIn,VisibilityMPH,Wind Direction,Wind SpeedMPH,Gust SpeedMPH,PrecipitationIn,Events,Conditions,WindDirDegrees,DateUTC
12:53 AM,69.1,48.0,47,29.83,10.0,ESE,9.2,-,N/A,,Clear,110,2013-08-25 06:53:00
1:53 AM,66.0,51.1,59,29.83,10.0,ESE,6.9,-,N/A,,Clear,120,2013-08-25 07:53:00
2:53 AM,66.0,50.0,56,29.83,10.0,East,6.9,-,N/A,,Clear,100,2013-08-25 08:53:00
3:53 AM,64.0,51.1,63,29.85,10.0,East,5.8,-,N/A,,Clear,100,2013-08-25 09:53:00
4:53 AM,64.9,50.0,58,29.84,10.0,East,10.4,-,N/A,,Clear,100,2013-08-25 10:53:00
5:53 AM,64.0,51.1,63,29.86,10.0,East,9.2,-,N/A,,Clear,100,2013-08-25 11:53:00
6:53 AM,66.0,52.0,60,29.88,10.0,East,8.1,-,N/A,,Clear,100,2013-08-25 12:53:00
7:53 AM,66.9,52.0,59,29.89,10.0,East,10.4,-,N/A,,Clear,100,2013-08-25 13:53:00
8:53 AM,70.0,54.0,57,29.89,10.0,East,10.4,-,N/A,,Clear,100,2013-08-25 14:53:00
9:53 AM,75.9,54.0,46,29.89,10.0,SSE,10.4,-,N/A,,Clear,150,2013-08-25 15:53:00
10:53 AM,79.0,55.0,44,29.89,10.0,SE,11.5,-,N/A,,Clear,140,2013-08-25 16:53:00
11:53 AM,82.9,55.0,38,29.89,10.0,SSE,10.4,-,N/A,,Clear,160,2013-08-25 17:53:00
12:53 PM,88.0,53.1,30,29.86,10.0,SSE,10.4,-,N/A,,Clear,160,2013-08-25 18:53:00
1:53 PM,91.9,48.0,22,29.86,10.0,South,12.7,-,N/A,,Clear,190,2013-08-25 19:53:00
2:53 PM,93.0,46.9,20,29.85,10.0,South,11.5,20.7,N/A,,Clear,190,2013-08-25 20:53:00
3:53 PM,93.9,44.1,18,29.84,10.0,South,10.4,-,N/A,,Clear,190,2013-08-25 21:53:00
4:53 PM,93.9,42.1,17,29.83,10.0,WSW,13.8,-,N/A,,Clear,240,2013-08-25 22:53:00
5:53 PM,93.0,43.0,18,29.82,10.0,WSW,6.9,-,N/A,,Clear,240,2013-08-25 23:53:00
6:53 PM,90.0,45.0,21,29.81,10.0,Calm,Calm,-,N/A,,Clear,0,2013-08-26 00:53:00
7:53 PM,82.9,45.0,26,29.83,10.0,NNE,4.6,-,N/A,,Clear,20,2013-08-26 01:53:00
8:53 PM,75.9,45.0,33,29.84,9.0,East,8.1,-,N/A,,Clear,80,2013-08-26 02:53:00
9:53 PM,73.9,46.9,38,29.85,10.0,East,10.4,-,N/A,,Clear,90,2013-08-26 03:53:00
10:53 PM,73.0,52.0,48,29.86,10.0,East,10.4,-,N/A,,Clear,90,2013-08-26 04:53:00
11:53 PM,73.0,55.0,53,29.84,10.0,East,11.5,-,N/A,,Clear,100,2013-08-26 05:53:00